GOES 14

Last updated on Tue Oct 15 2024 00:02:17 GMT+0000 (Coordinated Universal Time)

1 35491U 09033A 24288.20952376 -.00000067 00000+0 00000+0 0 9997 2 35491 0.0929 92.4800 0003820 89.6433 168.0308 1.00270126 468
UTC large
Height (km)
Speed (km/s)
/
Latitude / Longitude
Inclination (degrees)
Orbital Period (minutes)
Azimuth
Elevation
Range (km)
Doppler Factor

Next 0 passes for location: London (51.5072 / 0.1276)

Sorry there are no passes over London.